[[{"header":{"parameterUnit":"m.s-1","parameterCategory":1,"la1":30.2991,"la2":30.254,"lo1":-89.0895,"lo2":-89.0444,"dy":0.0017,"dx":0.0017,"nx":28,"ny":28,"refTime":"2025-05-21T03:00:00:Z","depth":0,"parameterNumber":2,"parameterNumberName":"U-component_of_WINDS"},"data":[0,0,0,0,0,0,0,0,0,0,0,0,0,0,0,0,0,0,0,0,0,0,0,0,0,0,0,0,0,0,0,0,0,0,0,0,0,0,0,0,0,0,0,0,0,0,0,0,0,0,0,0,0,0,0,0,0,0,0.6521,0.6522,0,0.6614,0.6615,0.6616,0.6636,0.6635,0.6635,0.6634,0.6732,0.6736,0.6739,0,0,0,0,0,0,0,0,0,0,0,0,0,0.6365,0.6368,0.6521,0.6522,0.6523,0.6613,0.6615,0.6616,0.6636,0.6635,0.6635,0.6634,0.6731,0.6735,0.6739,0,0,0,0,0,0,0,0,0,0,0,0,0,0.6443,0.6369,0.6521,0.6544,0.6547,0.6613,0.6615,0.6616,0.6636,0.6635,0.6634,0.6633,0.673,0.6735,0.674,0.679,0,0,0.6754,0.6757,0,0,0,0,0,0,0,0,0.6439,0.6449,0.654,0.6543,0.6546,0.6612,0.6596,0.6675,0.6637,0.6603,0.6634,0.6633,0.6693,0.6701,0.6721,0.6795,0.6799,0.6755,0.6758,0.676,0.6761,0,0,0,0,0,0,0,0.6433,0.6445,0.6558,0.6541,0.6545,0.6551,0.6561,0.6611,0.6653,0.6606,0.6607,0.6618,0.6695,0.6716,0.6723,0.68,0.6755,0.6759,0.6762,0.6764,0.692,0.6921,0,0,0,0,0,0,0.6423,0.644,0.6555,0.6561,0.6489,0.6555,0.6566,0.6592,0.6652,0.666,0.6618,0.6618,0.6708,0.6718,0.6727,0.679,0.676,0.6764,0.6767,0.6919,0.692,0.6922,0,0,0,0,0,0,0.642,0.6433,0.6551,0.6501,0.6516,0.6559,0.6588,0.6594,0.6616,0.6662,0.667,0.6632,0.6708,0.672,0.6774,0.6794,0.6767,0.6771,0.6918,0.6919,0.6921,0.6917,0,0,0,0,0,0,0.6415,0.6432,0.6451,0.6501,0.6519,0.6596,0.6589,0.6597,0.6623,0.6624,0.6677,0.6685,0.6708,0.6767,0.6779,0.68,0.6775,0.6916,0.6918,0.6921,0.6915,0.6918,0.6921,0,0,0,0,0,0.641,0.6446,0.6451,0.6465,0.6543,0.6597,0.6607,0.6632,0.6625,0.6645,0.6675,0.6683,0.6789,0.6772,0.6786,0.6809,0.6915,0.6918,0.692,0.6914,0.6918,0.692,0,0,0,0,0,0,0.6398,0.6453,0.646,0.6514,0.655,0.66,0.6626,0.6635,0.6675,0.6674,0.6705,0.6717,0.6769,0.6794,0.6774,0.6861,0.6852,0.6858,0.6842,0.6846,0.6849,0.6842,0.6779,0,0,0,0,0,0.6402,0.644,0.6486,0.6529,0.6547,0.6583,0.6607,0.6624,0.6663,0.6679,0.6713,0.6752,0.6794,0.6822,0.6863,0.6919,0.6931,0.6942,0.6944,0.6946,0.6951,0.6983,0.6988,0.6931,0.6931,0.6931,0,0,0.641,0.6445,0.6467,0.6528,0.6558,0.6598,0.6596,0.6638,0.6668,0.6686,0.6738,0.6765,0.681,0.6865,0.6891,0.6888,0.6969,0.695,0.6951,0.6955,0.6986,0.6992,0.6996,0.6933,0.6932,0.6932,0,0,0.6445,0.6475,0.6514,0.6544,0.659,0.6613,0.6623,0.6671,0.6689,0.6742,0.6756,0.6793,0.6865,0.6897,0.6923,0.697,0.6979,0.6982,0.6997,0.7027,0.7032,0.7036,0.7053,0.7059,0.6987,0.6987,0.6987,0,0.645,0.6509,0.6534,0.6575,0.6602,0.6618,0.6659,0.6687,0.6744,0.6763,0.6758,0.6849,0.6881,0.6944,0.6955,0.6975,0.6988,0.6977,0.7029,0.7033,0.7038,0.7055,0.7061,0.6987,0.6987,0.6987,0.6987,0,0.6513,0.6554,0.658,0.6634,0.6663,0.6704,0.6736,0.6763,0.6777,0.6801,0.6855,0.6894,0.6944,0.696,0.6974,0.7025,0.7022,0.7023,0.7014,0.7043,0.7059,0.7066,0.6987,0.6987,0.6987,0.6987,0,0,0.6544,0.661,0.662,0.6644,0.6695,0.6728,0.677,0.6817,0.684,0.6879,0.6916,0.6976,0.6977,0.7006,0.7024,0.7051,0.7086,0.7049,0.705,0.7055,0.7145,0.7145,0.7152,0.7092,0.7094,0.7095,0.7142,0,0.6586,0.666,0.6683,0.6746,0.6784,0.68,0.6837,0.6873,0.6897,0.6934,0.6961,0.7003,0.7001,0.7019,0.7046,0.7076,0.7105,0.7073,0.7128,0.7129,0.7116,0.716,0.716,0.7202,0.7148,0.7149,0.715,0,0.6645,0.6683,0.6749,0.6795,0.6812,0.6845,0.689,0.6925,0.6966,0.6982,0.7014,0.703,0.7075,0.7063,0.7127,0.7105,0.7128,0.7146,0.7149,0.7155,0.7142,0.7169,0.7216,0.7223,0.716,0.716,0.7159,0,0.6661,0.673,0.6778,0.6799,0.6854,0.6876,0.69,0.6941,0.6968,0.7008,0.7026,0.7071,0.7096,0.7131,0.7159,0.7148,0.722,0.7211,0.7235,0.7234,0.725,0.7249,0.7303,0.7264,0.7264,0.7264,0.7264,0,0.6706,0.6746,0.6786,0.6816,0.6861,0.6888,0.6933,0.6958,0.6994,0.7029,0.7047,0.708,0.7114,0.7152,0.7174,0.7224,0.7235,0.725,0.7255,0.7248,0.7247,0.7265,0.7263,0.7266,0.7265,0.7265,0.7265,0,0.6732,0.6761,0.6815,0.6862,0.6875,0.6907,0.6948,0.6978,0.7002,0.7047,0.706,0.7098,0.7144,0.7175,0.7234,0.7249,0.7302,0.7307,0.7288,0.7291,0.7314,0.7311,0.7382,0.7393,0.7346,0.7347,0.7347,0,0.6759,0.679,0.684,0.6865,0.6889,0.6929,0.6956,0.6984,0.7012,0.7061,0.7086,0.7132,0.7171,0.7244,0.7278,0.7323,0.7329,0.7351,0.7337,0.7329,0.7331,0.7328,0.7332,0.7354,0.7354,0.7354,0.7354,0,0.6804,0.6816,0.6855,0.6898,0.693,0.6966,0.7002,0.7022,0.7056,0.7087,0.7133,0.7163,0.7223,0.7269,0.7318,0.7344,0.7355,0.7359,0.7367,0.7361,0.7348,0.7356,0.7295,0.7357,0.7357,0.7357,0.7356,0.7356,0.6832,0.686,0.69,0.6942,0.6972,0.7005,0.7036,0.7064,0.7102,0.7152,0.7167,0.7215,0.7256,0.7322,0.7349,0.7388,0.7386,0.7398,0.7401,0.7404,0.7404,0.7341,0.7397,0.7397,0.7397,0.7397,0.7397,0,0.6878,0.6904,0.6943,0.6992,0.7026,0.7032,0.7072,0.71,0.7142,0.7179,0.7217,0.727,0.7315,0.7352,0.7399,0.7423,0.743,0.7435,0.7434,0.744,0.7403,0.7391,0.7429,0.7429,0.7429,0.7429,0.7429,0.7429,0.6906,0.6954,0.6971,0.7035,0.7061,0.7108,0.7131,0.7162,0.7191,0.725,0.7287,0.731,0.7348,0.7397,0.7439,0.7449,0.7466,0.747,0.7481,0.7446,0.7442,0.7439,0.7428,0.7473,0.7473,0.7515,0.7515,0.7515]},{"header":{"parameterUnit":"m.s-1","parameterCategory":1,"la1":30.2991,"la2":30.254,"lo1":-89.0895,"lo2":-89.0444,"dy":0.0017,"dx":0.0017,"nx":28,"ny":28,"refTime":"2025-05-21T03:00:00:Z","depth":0,"parameterNumber":3,"parameterNumberName":"V-component_of_WINDS"},"data":[0,0,0,0,0,0,0,0,0,0,0,0,0,0,0,0,0,0,0,0,0,0,0,0,0,0,0,0,0,0,0,0,0,0,0,0,0,0,0,0,0,0,0,0,0,0,0,0,0,0,0,0,0,0,0,0,0,0,3.2292,3.2292,0,3.2268,3.2267,3.2267,3.2257,3.2258,3.2258,3.2258,3.2231,3.223,3.2229,0,0,0,0,0,0,0,0,0,0,0,0,0,3.2328,3.2327,3.2292,3.2292,3.2292,3.2268,3.2267,3.2267,3.2257,3.2258,3.2258,3.2258,3.2231,3.223,3.2229,0,0,0,0,0,0,0,0,0,0,0,0,0,3.2308,3.2327,3.2292,3.2284,3.2283,3.2268,3.2267,3.2267,3.2257,3.2258,3.2258,3.2258,3.2232,3.223,3.2229,3.222,0,0,3.2226,3.2225,0,0,0,0,0,0,0,0,3.231,3.2307,3.2286,3.2285,3.2283,3.2266,3.227,3.2251,3.2257,3.2267,3.2258,3.2258,3.2242,3.224,3.2235,3.2219,3.2218,3.2226,3.2225,3.2224,3.2224,0,0,0,0,0,0,0,3.2311,3.2308,3.2282,3.2285,3.2284,3.228,3.2278,3.2266,3.2254,3.2266,3.2266,3.2263,3.2242,3.2237,3.2235,3.2217,3.2226,3.2225,3.2224,3.2223,3.2188,3.2188,0,0,0,0,0,0,3.2314,3.2309,3.2283,3.2282,3.2297,3.228,3.2277,3.2271,3.2255,3.2252,3.2263,3.2262,3.2239,3.2236,3.2234,3.222,3.2224,3.2223,3.2223,3.2188,3.2188,3.2188,0,0,0,0,0,0,3.2315,3.2312,3.2284,3.2295,3.2292,3.2279,3.2273,3.2271,3.2266,3.2252,3.2249,3.226,3.2239,3.2235,3.2223,3.2219,3.2223,3.2222,3.2189,3.2188,3.2188,3.2193,0,0,0,0,0,0,3.2316,3.2312,3.2309,3.2295,3.2291,3.2275,3.2273,3.227,3.2264,3.2263,3.2249,3.2246,3.2238,3.2225,3.2222,3.2217,3.2221,3.2189,3.2189,3.2188,3.2193,3.2193,3.2193,0,0,0,0,0,3.2317,3.2312,3.2309,3.2306,3.2288,3.2275,3.2272,3.2264,3.2264,3.226,3.2251,3.2247,3.222,3.2223,3.222,3.2215,3.2189,3.2189,3.2188,3.2193,3.2193,3.2193,0,0,0,0,0,0,3.2326,3.231,3.2307,3.2298,3.2287,3.2273,3.2269,3.2264,3.2254,3.2253,3.2243,3.224,3.2227,3.222,3.2225,3.2204,3.2204,3.2203,3.2209,3.2209,3.2208,3.221,3.222,0,0,0,0,0,3.2327,3.2319,3.2305,3.2298,3.2293,3.2282,3.2276,3.227,3.2259,3.2255,3.2245,3.2233,3.2222,3.2215,3.2204,3.2192,3.2187,3.2187,3.2186,3.2186,3.2185,3.2175,3.2174,3.2186,3.2186,3.2186,0,0,3.2329,3.2319,3.2315,3.2299,3.2291,3.2281,3.2278,3.2269,3.2261,3.2253,3.224,3.2232,3.2219,3.2206,3.2199,3.2199,3.218,3.2186,3.2186,3.2184,3.2175,3.2173,3.2172,3.2186,3.2186,3.2186,0,0,3.2327,3.2319,3.2312,3.2303,3.229,3.2282,3.228,3.2266,3.226,3.2247,3.224,3.223,3.2212,3.2202,3.2194,3.2185,3.218,3.2182,3.218,3.2171,3.217,3.2169,3.2164,3.2162,3.2181,3.2181,3.2181,0,3.2331,3.2317,3.2308,3.2298,3.2291,3.2283,3.2274,3.2265,3.2249,3.2244,3.2244,3.2218,3.2209,3.2192,3.219,3.2185,3.218,3.2184,3.2171,3.217,3.2169,3.2164,3.2162,3.2181,3.2181,3.2181,3.2181,0,3.2321,3.2311,3.2306,3.2291,3.2282,3.2273,3.2261,3.2254,3.2248,3.224,3.2225,3.2213,3.2198,3.2194,3.2189,3.2175,3.2175,3.2173,3.2173,3.2168,3.2163,3.2161,3.2181,3.2181,3.2181,3.2181,0,0,3.2325,3.2304,3.2302,3.2293,3.2277,3.2269,3.2258,3.2244,3.2237,3.2225,3.2214,3.2198,3.2195,3.2186,3.2179,3.2171,3.2162,3.217,3.2169,3.2167,3.2144,3.2145,3.2143,3.2159,3.2158,3.2158,3.2144,0,3.232,3.2302,3.2292,3.2277,3.2266,3.2257,3.2247,3.2235,3.2226,3.2215,3.2205,3.2192,3.2191,3.2185,3.2176,3.2165,3.2157,3.2166,3.2147,3.2146,3.2149,3.214,3.2142,3.213,3.2142,3.2142,3.2142,0,3.2313,3.2301,3.2284,3.2267,3.2262,3.2254,3.2238,3.2228,3.2213,3.2207,3.2196,3.2189,3.2175,3.2176,3.2155,3.2161,3.2152,3.2145,3.2144,3.2142,3.2143,3.2136,3.2126,3.2124,3.2139,3.2139,3.214,0,3.2315,3.2295,3.2282,3.2276,3.2256,3.2249,3.2241,3.2226,3.2217,3.2203,3.2197,3.2181,3.2173,3.216,3.2147,3.215,3.2127,3.2128,3.212,3.212,3.2115,3.2116,3.2102,3.2111,3.2112,3.2112,3.2112,0,3.231,3.23,3.2283,3.2275,3.2262,3.225,3.2238,3.2228,3.2215,3.2203,3.2194,3.2183,3.2168,3.2154,3.2145,3.2127,3.2124,3.2117,3.2114,3.2117,3.2118,3.2111,3.2111,3.2111,3.2111,3.2111,3.2111,0,3.2312,3.23,3.2285,3.2267,3.2262,3.2253,3.2236,3.2227,3.2217,3.2202,3.2198,3.2181,3.2164,3.2151,3.2129,3.2122,3.2104,3.2101,3.2109,3.2107,3.2099,3.21,3.208,3.2076,3.209,3.2089,3.2089,0,3.2309,3.2301,3.2281,3.2273,3.2264,3.2251,3.2242,3.2229,3.2219,3.22,3.2192,3.2175,3.216,3.2133,3.2118,3.2101,3.2097,3.2091,3.2094,3.2096,3.2095,3.2095,3.2093,3.2091,3.2091,3.2091,3.2091,0,3.2305,3.2299,3.2286,3.227,3.2259,3.2246,3.2232,3.2226,3.221,3.2199,3.2181,3.217,3.2147,3.2128,3.2109,3.2098,3.2091,3.209,3.2087,3.2089,3.2093,3.2089,3.2106,3.209,3.209,3.209,3.209,3.209,3.2303,3.2295,3.2279,3.2264,3.2252,3.2239,3.2229,3.2216,3.2202,3.2182,3.2175,3.2157,3.2139,3.2112,3.21,3.2084,3.2084,3.208,3.2079,3.2077,3.2077,3.2096,3.2081,3.2081,3.2081,3.2081,3.2081,0,3.2297,3.2286,3.2273,3.2253,3.2241,3.2236,3.222,3.2209,3.2193,3.2178,3.2163,3.2141,3.2123,3.2105,3.2086,3.2076,3.2072,3.2071,3.2071,3.2068,3.208,3.2083,3.2074,3.2074,3.2074,3.2074,3.2074,3.2074,3.2293,3.2277,3.2269,3.2246,3.2234,3.2217,3.2208,3.2194,3.2182,3.2158,3.2143,3.2132,3.2114,3.2093,3.2075,3.207,3.2062,3.2062,3.2056,3.2067,3.2068,3.2068,3.2072,3.206,3.206,3.2045,3.2045,3.2045]}]]